Weather History for PAKF - November, 2011

Change the Weather History Date:

Saturday, November 12, 2011

  Actual Average (PACD) Record (PACD)
Temperature  
Mean Temperature 38 °F 35 °F  
Max Temperature 44 °F 40 °F 48 °F (1959)
Min Temperature 33 °F 30 °F 12 °F (1963)
Degree Days  
Heating Degree Days 26 30  
Month to date heating degree days 350  
Since 1 July heating degree days 2463  
Cooling Degree Days 0    
Month to date cooling degree days  
Year to date cooling degree days  
Moisture  
Dew Point 27 °F    
Average Humidity 68    
Maximum Humidity 87    
Minimum Humidity 47    
Precipitation  
Precipitation 0.02 in 0.16 in 3.78 in (2000)
Month to date precipitation 1.90  
Year to date precipitation 34.13  
Snow  
Snow 0.00 in 0.30 in 1.60 in (1977)
Month to date snowfall 3.2  
Since 1 July snowfall 5.6  
Since 1 September snowfall 5.6  
Snow Depth -    
Sea Level Pressure  
Sea Level Pressure 29.77 in    
Wind  
Wind Speed 20 mph (WNW)    
Max Wind Speed 38 mph    
Max Gust Speed 70 mph    
Visibility 7 miles    
Events Fog , Rain , Snow    
T = Trace of Precipitation, MM = Missing Value Source: NWS Daily Summary

Daily Weather History Graph

Daily Weather History Graph

Search for Another Location

Airport or City:

Trip Planner

Search our weather history database for the weather conditions in past years. The results will help you decide how hot, cold, wet, or windy it might be!

Date:

Astronomy

Nov. 12, 2011 Rise Set
Actual Time 8:19 AM HST 4:55 PM HST
Civil Twilight 7:38 AM HST 5:35 PM HST
Nautical Twilight 6:54 AM HST 6:19 PM HST
Astronomical Twilight 6:12 AM HST 7:02 PM HST
Moon 6:01 PM HST (11/12) 10:32 AM HST (11/12)
Length of Visible Light 9h 57m
Length of Day
8h 36m
Waning Gibbous, 96% of the Moon is Illuminated
Nov 12
Waning Gibbous
Nov 18
Last Quarter
Nov 24
New
Dec 1
First Quarter
Dec 10
Full

Hourly Weather History & Observations

Time (HST) Temp. Windchill Dew Point Humidity Pressure Visibility Wind Dir Wind Speed Gust Speed Precip Events Conditions
12:01 AM 42.1 °F 34.2 °F 28.9 °F 60% 29.43 in 10.0 mi WNW 16.1 mph 26.5 mph 0.00 in Rain Light Rain
1:01 AM 42.1 °F 34.9 °F 26.1 °F 53% 29.45 in 10.0 mi WNW 13.8 mph 24.2 mph 0.00 in   Clear
3:01 AM 44.1 °F 36.8 °F 25.0 °F 47% 29.46 in 10.0 mi SSW 16.1 mph 29.9 mph N/A   Clear
4:01 AM 43.0 °F 35.1 °F 28.9 °F 58% 29.46 in 10.0 mi SW 17.3 mph 29.9 mph 0.00 in Rain Light Rain
4:59 AM 39.2 °F 30.2 °F 32.0 °F 75% 29.48 in 5.0 mi WNW 17.3 mph 52.9 mph 0.00 in Rain Light Rain
5:01 AM 39.2 °F 27.8 °F 32.0 °F 75% 29.48 in 6.0 mi WNW 27.6 mph 52.9 mph 0.00 in Rain Light Rain
6:01 AM 39.0 °F 25.9 °F 27.0 °F 62% 29.52 in 10.0 mi WNW 38.0 mph 61.0 mph N/A Rain Light Rain
7:01 AM 37.9 °F 26.6 °F 23.0 °F 55% 29.56 in 10.0 mi West 25.3 mph 52.9 mph 0.00 in   Overcast
8:01 AM 37.9 °F 25.7 °F 21.9 °F 53% 29.60 in 10.0 mi WNW 29.9 mph 52.9 mph N/A   Overcast
9:01 AM 39.0 °F 28.0 °F 25.0 °F 57% 29.63 in 10.0 mi West 25.3 mph 44.9 mph N/A   Overcast
9:42 AM 37.4 °F 25.0 °F 30.2 °F 75% 29.66 in 1.8 mi WNW 29.9 mph 48.3 mph 0.00 in Snow Light Snow
9:50 AM 37.4 °F 24.8 °F 30.2 °F 75% 29.67 in 1.5 mi West 31.1 mph 49.5 mph 0.00 in Snow Light Snow
9:53 AM 37.4 °F 25.9 °F 30.2 °F 75% 29.68 in 2.5 mi West 25.3 mph 70.2 mph 0.00 in Snow Light Snow
10:01 AM 37.0 °F 24.5 °F 30.9 °F 79% 29.68 in 6.0 mi WNW 29.9 mph 48.3 mph 0.00 in Rain Light Rain
10:06 AM 37.4 °F 27.5 °F 30.2 °F 75% 29.70 in 2.5 mi WNW 18.4 mph 48.3 mph 0.00 in Snow Light Snow
10:17 AM 35.6 °F 25.9 °F 30.2 °F 81% 29.71 in 1.2 mi WNW 16.1 mph 36.8 mph 0.01 in Snow Light Snow
11:01 AM 37.0 °F 26.4 °F 28.9 °F 73% 29.75 in 9.0 mi NNW 20.7 mph 36.8 mph N/A Rain Light Rain
11:25 AM 37.4 °F 25.9 °F 28.4 °F 70% 29.77 in 3.0 mi NW 25.3 mph 51.8 mph 0.00 in Snow Light Snow
11:31 AM 35.6 °F 24.8 °F 28.4 °F 75% 29.77 in 2.5 mi NW 19.6 mph 36.8 mph 0.00 in Snow Light Snow
12:01 PM 35.6 °F 25.9 °F 28.4 °F 75% 29.80 in 2.5 mi WNW 16.1 mph 34.5 mph N/A Snow Light Snow
12:08 PM 33.8 °F 19.0 °F 30.2 °F 87% 29.80 in 0.5 mi West 35.7 mph 47.2 mph N/A Fog , Snow Snow
12:16 PM 35.6 °F 24.0 °F 28.4 °F 75% 29.82 in 1.5 mi West 23.0 mph 50.6 mph N/A Snow Light Snow
12:23 PM 35.6 °F 24.2 °F 28.4 °F 75% 29.81 in 3.0 mi West 21.9 mph 44.9 mph N/A Snow Light Snow
12:36 PM 35.6 °F 25.9 °F 28.4 °F 75% 29.82 in 9.0 mi WNW 16.1 mph 39.1 mph N/A Rain Light Rain
1:22 PM 35.6 °F 23.4 °F 26.6 °F 70% 29.84 in 2.5 mi WNW 25.3 mph 47.2 mph N/A Snow Light Snow
1:29 PM 35.6 °F 24.0 °F 26.6 °F 70% 29.85 in 9.0 mi West 23.0 mph 47.2 mph N/A Snow Light Snow
1:43 PM 35.6 °F 23.0 °F 28.4 °F 75% 29.85 in 10.0 mi West 27.6 mph 42.6 mph N/A Rain Light Rain
2:01 PM 36.0 °F 27.1 °F 27.0 °F 70% 29.85 in 10.0 mi West 13.8 mph 36.8 mph N/A Rain Light Rain
3:01 PM 36.0 °F 24.4 °F 25.0 °F 64% 29.89 in 10.0 mi West 23.0 mph 34.5 mph N/A   Mostly Cloudy
4:01 PM 35.1 °F 25.5 °F 23.0 °F 61% 29.91 in 10.0 mi West 15.0 mph 34.5 mph 0.01 in   Scattered Clouds
5:01 PM 36.0 °F 26.7 °F 21.9 °F 57% 29.92 in 10.0 mi WNW 15.0 mph 27.6 mph 0.00 in Rain Light Rain
5:09 PM 35.6 °F 24.5 °F 26.6 °F 70% 29.94 in 2.5 mi West 20.7 mph 42.6 mph 0.00 in Snow Light Snow
6:01 PM 36.0 °F 27.5 °F 21.9 °F 57% 29.96 in 10.0 mi West 12.7 mph 35.7 mph N/A   Mostly Cloudy
7:01 PM 35.1 °F 26.4 °F 21.0 °F 57% 29.97 in 10.0 mi West 12.7 mph 24.2 mph 0.00 in   Mostly Cloudy
8:01 PM 34.0 °F 26.0 °F 27.0 °F 75% 29.98 in 4.0 mi WNW 10.4 mph 19.6 mph 0.00 in Snow Light Snow
8:15 PM 33.8 °F 25.3 °F 26.6 °F 75% 29.99 in 6.0 mi WSW 11.5 mph 28.8 mph 0.00 in Snow Light Snow
9:01 PM 35.6 °F 26.2 °F 21.2 °F 56% 29.99 in 10.0 mi West 15.0 mph 28.8 mph 0.00 in   Mostly Cloudy
10:01 PM 36.0 °F 29.6 °F 21.0 °F 55% 30.01 in 10.0 mi East 8.1 mph 23.0 mph 0.01 in   Mostly Cloudy
10:48 PM 33.8 °F 29.6 °F 28.4 °F 81% 30.04 in 1.8 mi NW 4.6 mph - N/A Snow Light Snow
11:33 PM 35.6 °F 31.7 °F 24.8 °F 65% 30.04 in 9.0 mi South 4.6 mph 19.6 mph N/A Snow Light Snow
11:51 PM 35.6 °F 29.2 °F 21.2 °F 56% 30.04 in 10.0 mi SSW 8.1 mph 18.4 mph N/A   Overcast